AUL5474 UWKD-ULAA

Flight info

Callsign AUL5474
Flight time 1h 56m
Altitude 39000
Route DIKMU1H DIKMU T793 ALOPU/K0843F380 T822 LIKPA T762 ADINU ADINU3M
Aircraft B737/M-SDE2E3FGHIRWXY/LB1

Departure

Time 2026-04-29 17:15
Airport Kazan International Airport (UWKD)

Arrival

Time 2026-04-29 19:12
Airport Talagi Airport (ULAA)
Time Latitude Longitude Altitude Speed Heading
2026-04-29 16:51 55.60713 49.29975 422 ft 0 kts 34°
2026-04-29 16:52 55.60673 49.30081 422 ft 0 kts 34°
2026-04-29 17:07 55.60667 49.30073 422 ft 2 kts 34°
2026-04-29 17:07 55.60659 49.30063 422 ft 2 kts 34°
2026-04-29 17:07 55.60642 49.30043 422 ft 2 kts 34°
2026-04-29 17:07 55.60630 49.30029 422 ft 1 kts 34°
2026-04-29 17:08 55.60624 49.30014 422 ft 2 kts 69°
2026-04-29 17:08 55.60617 49.29991 422 ft 2 kts 57°
2026-04-29 17:08 55.60609 49.29969 422 ft 2 kts 60°
2026-04-29 17:08 55.60603 49.29948 422 ft 1 kts 61°
2026-04-29 17:09 55.60595 49.29935 422 ft 2 kts 26°
2026-04-29 17:09 55.60582 49.29921 422 ft 1 kts 37°
2026-04-29 17:09 55.60580 49.29918 422 ft 0 kts 36°
2026-04-29 17:11 55.60580 49.29919 422 ft 0 kts 36°
2026-04-29 17:11 55.60592 49.29934 422 ft 4 kts 37°
2026-04-29 17:12 55.60601 49.30018 422 ft 10 kts 117°
2026-04-29 17:12 55.60531 49.30090 422 ft 15 kts 208°
2026-04-29 17:12 55.60443 49.29987 422 ft 15 kts 214°
2026-04-29 17:12 55.60381 49.29915 422 ft 16 kts 207°
2026-04-29 17:13 55.60233 49.29913 422 ft 16 kts 156°
2026-04-29 17:13 55.60112 49.30013 422 ft 22 kts 155°
2026-04-29 17:13 55.59977 49.30121 422 ft 16 kts 164°
2026-04-29 17:13 55.59906 49.30103 422 ft 4 kts 210°
2026-04-29 17:14 55.59901 49.30098 422 ft 0 kts 211°
2026-04-29 17:14 55.59900 49.30096 422 ft 1 kts 212°
2026-04-29 17:14 55.59859 49.30047 422 ft 12 kts 214°
2026-04-29 17:14 55.59853 49.29870 422 ft 20 kts 303°
2026-04-29 17:15 55.59914 49.29712 422 ft 29 kts 304°
2026-04-29 17:15 55.60170 49.29050 422 ft 99 kts 304°
2026-04-29 17:15 55.60676 49.27752 425 ft 153 kts 303°
2026-04-29 17:15 55.61295 49.26226 1044 ft 152 kts 302°
2026-04-29 17:16 55.61876 49.24726 1773 ft 149 kts 298°
2026-04-29 17:16 55.62428 49.23245 2495 ft 148 kts 298°
2026-04-29 17:16 55.63044 49.21635 2918 ft 167 kts 300°
2026-04-29 17:16 55.63726 49.19871 3421 ft 183 kts 300°
2026-04-29 17:17 55.64472 49.17938 3916 ft 199 kts 300°
2026-04-29 17:17 55.65240 49.15812 4003 ft 213 kts 293°
2026-04-29 17:17 55.65591 49.13327 3982 ft 202 kts 268°
2026-04-29 17:17 55.65410 49.10909 3987 ft 195 kts 254°
2026-04-29 17:18 55.64806 49.08741 3984 ft 205 kts 233°
2026-04-29 17:18 55.63705 49.07023 4051 ft 221 kts 217°
2026-04-29 17:18 55.62440 49.05525 4947 ft 219 kts 217°
2026-04-29 17:18 55.61185 49.04137 5884 ft 217 kts 209°
2026-04-29 17:19 55.59715 49.03480 6657 ft 227 kts 185°
2026-04-29 17:19 55.58132 49.03875 7437 ft 235 kts 167°
2026-04-29 17:19 55.56640 49.05233 7933 ft 257 kts 143°
2026-04-29 17:19 55.55487 49.07812 8437 ft 278 kts 122°
2026-04-29 17:20 55.54885 49.11090 8980 ft 295 kts 94°
2026-04-29 17:20 55.55298 49.14625 9760 ft 299 kts 63°
2026-04-29 17:20 55.56583 49.17479 10404 ft 304 kts 38°
2026-04-29 17:20 55.58467 49.19328 10837 ft 315 kts 16°
2026-04-29 17:21 55.60609 49.20438 11259 ft 330 kts 12°
2026-04-29 17:21 55.62861 49.21501 11702 ft 344 kts 12°
2026-04-29 17:21 55.65193 49.22651 12461 ft 349 kts 13°
2026-04-29 17:21 55.67503 49.23827 13247 ft 353 kts 13°
2026-04-29 17:22 55.69869 49.25048 14037 ft 357 kts 13°
2026-04-29 17:22 55.72264 49.26293 14841 ft 361 kts 13°
2026-04-29 17:22 55.74698 49.27562 15599 ft 366 kts 13°
2026-04-29 17:22 55.77150 49.28843 16350 ft 371 kts 13°
2026-04-29 17:23 55.79632 49.30142 17103 ft 376 kts 13°
2026-04-29 17:23 55.82138 49.31456 17834 ft 380 kts 12°
2026-04-29 17:23 55.84706 49.32804 18530 ft 386 kts 12°
2026-04-29 17:23 55.87279 49.34156 19188 ft 391 kts 12°
2026-04-29 17:24 55.89898 49.35535 19821 ft 397 kts 12°
2026-04-29 17:24 55.92565 49.36939 20034 ft 404 kts 12°
2026-04-29 17:24 55.95279 49.38371 20596 ft 407 kts 12°
2026-04-29 17:24 55.97974 49.39802 21463 ft 406 kts 12°
2026-04-29 17:25 56.00720 49.41257 22108 ft 409 kts 12°
2026-04-29 17:25 56.03473 49.42716 22640 ft 415 kts 12°
2026-04-29 17:25 56.06253 49.44191 23191 ft 420 kts 12°
2026-04-29 17:25 56.09085 49.45698 23798 ft 423 kts 11°
2026-04-29 17:26 56.11922 49.47210 24416 ft 426 kts 11°
2026-04-29 17:26 56.14843 49.48770 24929 ft 430 kts 11°
2026-04-29 17:26 56.17713 49.50306 25459 ft 433 kts 12°
2026-04-29 17:26 56.20635 49.51871 25982 ft 435 kts 12°
2026-04-29 17:27 56.23522 49.53419 26447 ft 438 kts 12°
2026-04-29 17:27 56.26496 49.55016 26858 ft 442 kts 12°
2026-04-29 17:27 56.29416 49.56588 27278 ft 444 kts 12°
2026-04-29 17:27 56.32388 49.58190 27637 ft 448 kts 12°
2026-04-29 17:28 56.35380 49.59805 28028 ft 451 kts 12°
2026-04-29 17:28 56.38420 49.61449 28396 ft 454 kts 12°
2026-04-29 17:28 56.41457 49.63095 28767 ft 456 kts 12°
2026-04-29 17:28 56.44508 49.64748 28987 ft 463 kts 12°
2026-04-29 17:29 56.47663 49.66463 29363 ft 465 kts 13°
2026-04-29 17:29 56.50798 49.68170 29656 ft 469 kts 13°
2026-04-29 17:29 56.53947 49.69887 29924 ft 473 kts 13°
2026-04-29 17:29 56.56049 49.71035 30142 ft 474 kts 13°
2026-04-29 17:30 56.60252 49.73336 30539 ft 477 kts 13°
2026-04-29 17:30 56.63466 49.75098 30834 ft 479 kts 13°
2026-04-29 17:30 56.66649 49.76848 31116 ft 481 kts 13°
2026-04-29 17:30 56.69861 49.78615 31403 ft 483 kts 13°
2026-04-29 17:31 56.73041 49.80371 31859 ft 479 kts 13°
2026-04-29 17:31 56.76244 49.82065 32221 ft 478 kts 11°
2026-04-29 17:31 56.79462 49.83418 32540 ft 476 kts
2026-04-29 17:31 56.82740 49.84597 32871 ft 476 kts
2026-04-29 17:32 56.85999 49.85713 33183 ft 476 kts
2026-04-29 17:32 56.89229 49.86814 33480 ft 477 kts
2026-04-29 17:32 56.92507 49.87941 33835 ft 476 kts
2026-04-29 17:32 56.95728 49.89061 34190 ft 476 kts
2026-04-29 17:33 56.99004 49.90209 34563 ft 474 kts
2026-04-29 17:33 57.02230 49.91347 34872 ft 475 kts
2026-04-29 17:33 57.05468 49.92493 35217 ft 473 kts
2026-04-29 17:33 57.08701 49.93641 35489 ft 474 kts
2026-04-29 17:34 57.12048 49.94833 35787 ft 474 kts
2026-04-29 17:34 57.15313 49.95999 36081 ft 474 kts
2026-04-29 17:34 57.18440 49.97119 36333 ft 474 kts
2026-04-29 17:34 57.21665 49.98276 36600 ft 474 kts
2026-04-29 17:35 57.25952 49.99819 36938 ft 474 kts
2026-04-29 17:35 57.31358 50.01770 37332 ft 475 kts
2026-04-29 17:35 57.34583 50.02937 37529 ft 476 kts
2026-04-29 17:36 57.37828 50.04113 37819 ft 475 kts
2026-04-29 17:36 57.41081 50.05294 38053 ft 476 kts
2026-04-29 17:36 57.44281 50.06458 38320 ft 475 kts
2026-04-29 17:36 57.47523 50.07641 38572 ft 475 kts
2026-04-29 17:37 57.50797 50.08836 38811 ft 475 kts
2026-04-29 17:37 57.53989 50.10004 38943 ft 476 kts
2026-04-29 17:37 57.57258 50.11201 38964 ft 478 kts
2026-04-29 17:38 57.63773 50.13596 38962 ft 476 kts
2026-04-29 17:38 57.70235 50.15982 38957 ft 473 kts
2026-04-29 17:39 57.76649 50.18356 38958 ft 474 kts
2026-04-29 17:39 57.83134 50.20764 38953 ft 475 kts
2026-04-29 17:40 57.89577 50.23168 38949 ft 474 kts
2026-04-29 17:40 57.96038 50.25586 38950 ft 474 kts
2026-04-29 17:41 58.02475 50.28004 38944 ft 474 kts
2026-04-29 17:41 58.08950 50.30445 38943 ft 475 kts
2026-04-29 17:42 58.15510 50.32928 38942 ft 475 kts
2026-04-29 17:42 58.21940 50.35463 38938 ft 474 kts
2026-04-29 17:43 58.28389 50.38072 38932 ft 474 kts
2026-04-29 17:43 58.34832 50.40684 38933 ft 473 kts
2026-04-29 17:44 58.41291 50.43307 38934 ft 473 kts
2026-04-29 17:44 58.47748 50.45935 38930 ft 473 kts
2026-04-29 17:45 58.54179 50.48560 38928 ft 474 kts
2026-04-29 17:45 58.60604 50.51129 38920 ft 474 kts
2026-04-29 17:46 58.67101 50.53478 38916 ft 473 kts
2026-04-29 17:46 58.73579 50.55799 38909 ft 472 kts
2026-04-29 17:47 58.80004 50.58127 38907 ft 472 kts
2026-04-29 17:47 58.86435 50.60477 38905 ft 472 kts
2026-04-29 17:48 58.92887 50.62849 38902 ft 472 kts
2026-04-29 17:48 58.99336 50.65109 38905 ft 472 kts
2026-04-29 17:49 59.05886 50.67334 38901 ft 473 kts
2026-04-29 17:49 59.12401 50.69711 38884 ft 474 kts
2026-04-29 17:50 59.18904 50.72062 38877 ft 472 kts
2026-04-29 17:50 59.25421 50.72184 38784 ft 466 kts 346°
2026-04-29 17:50 59.28492 50.70349 38538 ft 462 kts 335°
2026-04-29 17:51 59.31376 50.67730 38283 ft 457 kts 330°
2026-04-29 17:51 59.34142 50.64763 38034 ft 454 kts 328°
2026-04-29 17:51 59.36867 50.61677 37881 ft 450 kts 327°
2026-04-29 17:52 59.42234 50.55493 37870 ft 452 kts 327°
2026-04-29 17:52 59.47710 50.49172 37871 ft 457 kts 327°
2026-04-29 17:53 59.53180 50.42860 37869 ft 456 kts 327°
2026-04-29 17:53 59.58614 50.36578 37865 ft 456 kts 327°
2026-04-29 17:54 59.64108 50.30160 37868 ft 456 kts 326°
2026-04-29 17:54 59.69535 50.23707 37876 ft 456 kts 326°
2026-04-29 17:55 59.74920 50.17279 37868 ft 456 kts 326°
2026-04-29 17:55 59.80355 50.10773 37865 ft 457 kts 326°
2026-04-29 17:56 59.85766 50.04275 37861 ft 455 kts 326°
2026-04-29 17:56 59.91194 49.97768 37861 ft 455 kts 327°
2026-04-29 17:57 59.96621 49.91283 37865 ft 455 kts 327°
2026-04-29 17:57 60.02018 49.84809 37864 ft 455 kts 327°
2026-04-29 17:58 60.07437 49.78162 37863 ft 454 kts 325°
2026-04-29 17:58 60.12756 49.71164 37859 ft 454 kts 324°
2026-04-29 17:59 60.18034 49.64150 37856 ft 454 kts 324°
2026-04-29 17:59 60.23284 49.57177 37853 ft 453 kts 325°
2026-04-29 18:00 60.28568 49.50148 37855 ft 454 kts 325°
2026-04-29 18:00 60.33820 49.43142 37860 ft 454 kts 325°
2026-04-29 18:01 60.39055 49.36135 37849 ft 453 kts 325°
2026-04-29 18:01 60.44365 49.29002 37841 ft 453 kts 324°
2026-04-29 18:02 60.49578 49.21972 37843 ft 453 kts 324°
2026-04-29 18:02 60.54844 49.14844 37838 ft 453 kts 324°
2026-04-29 18:03 60.60052 49.07766 37850 ft 453 kts 324°
2026-04-29 18:03 60.65279 49.00635 37856 ft 453 kts 324°
2026-04-29 18:04 60.70488 48.93501 37857 ft 453 kts 324°
2026-04-29 18:04 60.75676 48.86369 37855 ft 452 kts 324°
2026-04-29 18:05 60.80894 48.79165 37853 ft 453 kts 324°
2026-04-29 18:05 60.86071 48.71989 37851 ft 452 kts 324°
2026-04-29 18:06 60.91278 48.64735 37857 ft 452 kts 324°
2026-04-29 18:06 60.96488 48.57426 37854 ft 453 kts 324°
2026-04-29 18:07 61.01661 48.50155 37848 ft 453 kts 324°
2026-04-29 18:07 61.06887 48.42815 37863 ft 453 kts 324°
2026-04-29 18:08 61.12105 48.35460 37848 ft 451 kts 324°
2026-04-29 18:08 61.17353 48.28027 37841 ft 451 kts 324°
2026-04-29 18:09 61.22522 48.20678 37837 ft 452 kts 324°
2026-04-29 18:09 61.27697 48.13298 37836 ft 452 kts 324°
2026-04-29 18:10 61.32858 48.05908 37835 ft 451 kts 324°
2026-04-29 18:10 61.38006 47.98505 37830 ft 451 kts 324°
2026-04-29 18:11 61.43156 47.91068 37826 ft 451 kts 324°
2026-04-29 18:11 61.48314 47.83589 37827 ft 451 kts 324°
2026-04-29 18:12 61.53487 47.76059 37826 ft 450 kts 324°
2026-04-29 18:12 61.58589 47.68600 37825 ft 450 kts 324°
2026-04-29 18:13 61.63705 47.61091 37826 ft 450 kts 324°
2026-04-29 18:13 61.68859 47.53496 37822 ft 451 kts 324°
2026-04-29 18:14 61.73953 47.45956 37818 ft 451 kts 324°
2026-04-29 18:14 61.79072 47.38349 37814 ft 450 kts 324°
2026-04-29 18:15 61.84247 47.30637 37812 ft 449 kts 323°
2026-04-29 18:15 61.89309 47.23066 37811 ft 448 kts 324°
2026-04-29 18:16 61.94384 47.15444 37809 ft 449 kts 324°
2026-04-29 18:16 61.99482 47.07762 37814 ft 449 kts 324°
2026-04-29 18:17 62.04571 47.00063 37812 ft 450 kts 324°
2026-04-29 18:17 62.09640 46.92361 37815 ft 449 kts 324°
2026-04-29 18:18 62.14801 46.84486 37810 ft 448 kts 324°
2026-04-29 18:18 62.19849 46.76750 37808 ft 448 kts 324°
2026-04-29 18:19 62.24904 46.68972 37809 ft 449 kts 324°
2026-04-29 18:19 62.29925 46.61212 37812 ft 448 kts 324°
2026-04-29 18:20 62.34986 46.53358 37813 ft 448 kts 324°
2026-04-29 18:20 62.40006 46.45535 37812 ft 447 kts 324°
2026-04-29 18:21 62.45012 46.37701 37816 ft 446 kts 324°
2026-04-29 18:21 62.50111 46.29688 37817 ft 446 kts 323°
2026-04-29 18:22 62.55098 46.21816 37819 ft 447 kts 323°
2026-04-29 18:22 62.60107 46.13806 37823 ft 447 kts 322°
2026-04-29 18:23 62.64991 46.05485 37822 ft 448 kts 321°
2026-04-29 18:23 62.69881 45.97039 37824 ft 446 kts 321°
2026-04-29 18:24 62.74701 45.88708 37826 ft 445 kts 321°
2026-04-29 18:24 62.79546 45.80316 37827 ft 445 kts 321°
2026-04-29 18:25 62.84404 45.71875 37825 ft 445 kts 321°
2026-04-29 18:25 62.89228 45.63461 37826 ft 445 kts 321°
2026-04-29 18:26 62.94066 45.54989 37830 ft 446 kts 322°
2026-04-29 18:26 62.98924 45.46447 37833 ft 446 kts 322°
2026-04-29 18:27 63.03764 45.37899 37829 ft 445 kts 322°
2026-04-29 18:27 63.08605 45.29311 37825 ft 445 kts 321°
2026-04-29 18:28 63.13495 45.20599 37825 ft 443 kts 321°
2026-04-29 18:28 63.18299 45.12001 37829 ft 443 kts 321°
2026-04-29 18:29 63.23087 45.03396 37828 ft 444 kts 321°
2026-04-29 18:29 63.27916 44.94679 37826 ft 444 kts 321°
2026-04-29 18:30 63.32693 44.86015 37825 ft 443 kts 321°
2026-04-29 18:30 63.37438 44.77379 37826 ft 443 kts 321°
2026-04-29 18:31 63.42220 44.68658 37830 ft 443 kts 321°
2026-04-29 18:31 63.46978 44.59943 37832 ft 443 kts 321°
2026-04-29 18:31 63.49361 44.55564 37702 ft 438 kts 321°
2026-04-29 18:32 63.51680 44.51291 37399 ft 431 kts 321°
2026-04-29 18:32 63.56270 44.42805 36519 ft 428 kts 322°
2026-04-29 18:32 63.58580 44.38522 36019 ft 427 kts 322°
2026-04-29 18:33 63.60851 44.34301 35519 ft 427 kts 321°
2026-04-29 18:33 63.63183 44.29958 34870 ft 429 kts 321°
2026-04-29 18:33 63.65493 44.25648 34162 ft 433 kts 321°
2026-04-29 18:33 63.67808 44.21321 33504 ft 434 kts 321°
2026-04-29 18:34 63.70115 44.17005 32998 ft 432 kts 321°
2026-04-29 18:34 63.71639 44.14153 32689 ft 431 kts 321°
2026-04-29 18:34 63.74715 44.08379 32126 ft 426 kts 322°
2026-04-29 18:34 63.76947 44.04174 31979 ft 413 kts 322°
2026-04-29 18:35 63.79121 44.00069 31759 ft 403 kts 322°
2026-04-29 18:35 63.81270 43.96006 31347 ft 401 kts 322°
2026-04-29 18:35 63.83401 43.91972 30958 ft 398 kts 322°
2026-04-29 18:35 63.85504 43.87981 30594 ft 394 kts 322°
2026-04-29 18:36 63.87587 43.84021 30132 ft 390 kts 322°
2026-04-29 18:36 63.89673 43.80046 29668 ft 386 kts 322°
2026-04-29 18:36 63.91704 43.76168 29220 ft 381 kts 322°
2026-04-29 18:36 63.93718 43.72313 28730 ft 376 kts 322°
2026-04-29 18:37 63.95729 43.68459 28132 ft 372 kts 322°
2026-04-29 18:37 63.97670 43.64731 27526 ft 367 kts 323°
2026-04-29 18:37 63.99611 43.60996 26926 ft 363 kts 323°
2026-04-29 18:37 64.01513 43.57332 26279 ft 358 kts 323°
2026-04-29 18:38 64.03404 43.53676 25636 ft 352 kts 323°
2026-04-29 18:38 64.05235 43.50129 24997 ft 347 kts 323°
2026-04-29 18:38 64.07059 43.46594 24248 ft 343 kts 323°
2026-04-29 18:38 64.08865 43.43077 23482 ft 339 kts 323°
2026-04-29 18:39 64.10639 43.39613 22757 ft 334 kts 323°
2026-04-29 18:39 64.12386 43.36198 22268 ft 324 kts 321°
2026-04-29 18:39 64.13418 43.33928 21990 ft 320 kts 316°
2026-04-29 18:39 64.14825 43.29933 21560 ft 329 kts 307°
2026-04-29 18:40 64.15973 43.25320 21108 ft 337 kts 300°
2026-04-29 18:40 64.16997 43.20475 20635 ft 332 kts 299°
2026-04-29 18:40 64.17958 43.15788 20193 ft 325 kts 299°
2026-04-29 18:40 64.18926 43.11060 19748 ft 321 kts 299°
2026-04-29 18:41 64.21779 42.97161 18432 ft 323 kts 299°
2026-04-29 18:41 64.22729 42.92513 17990 ft 320 kts 298°
2026-04-29 18:42 64.23669 42.87897 17549 ft 316 kts 298°
2026-04-29 18:42 64.24596 42.83343 17119 ft 312 kts 298°
2026-04-29 18:42 64.25504 42.78883 16691 ft 309 kts 298°
2026-04-29 18:42 64.26419 42.74371 16258 ft 307 kts 298°
2026-04-29 18:43 64.27321 42.69923 15831 ft 310 kts 298°
2026-04-29 18:43 64.28230 42.65467 15400 ft 311 kts 299°
2026-04-29 18:43 64.29227 42.61035 14962 ft 306 kts 301°
2026-04-29 18:43 64.30238 42.56731 14534 ft 303 kts 301°
2026-04-29 18:44 64.31230 42.52497 14116 ft 299 kts 301°
2026-04-29 18:44 64.31785 42.50114 13880 ft 297 kts 301°
2026-04-29 18:44 64.32750 42.45940 13466 ft 294 kts 301°
2026-04-29 18:44 64.33703 42.41799 13054 ft 291 kts 301°
2026-04-29 18:45 64.34650 42.37658 12643 ft 289 kts 301°
2026-04-29 18:45 64.35593 42.33554 12237 ft 292 kts 300°
2026-04-29 18:45 64.36536 42.29438 11819 ft 291 kts 300°
2026-04-29 18:45 64.37487 42.25273 11402 ft 287 kts 300°
2026-04-29 18:46 64.38403 42.21249 10995 ft 284 kts 300°
2026-04-29 18:46 64.39265 42.17454 10627 ft 280 kts 300°
2026-04-29 18:46 64.40200 42.13333 10227 ft 276 kts 300°
2026-04-29 18:46 64.41074 42.09471 10029 ft 266 kts 300°
2026-04-29 18:47 64.41915 42.05743 9870 ft 256 kts 300°
2026-04-29 18:47 64.42728 42.02143 9563 ft 252 kts 300°
2026-04-29 18:47 64.43536 41.98557 9236 ft 249 kts 300°
2026-04-29 18:47 64.44334 41.95014 8918 ft 245 kts 300°
2026-04-29 18:48 64.45105 41.91576 8617 ft 242 kts 301°
2026-04-29 18:48 64.45882 41.88116 8318 ft 243 kts 301°
2026-04-29 18:48 64.46668 41.84604 8009 ft 245 kts 301°
2026-04-29 18:48 64.47449 41.81110 7697 ft 242 kts 301°
2026-04-29 18:49 64.48216 41.77669 7398 ft 237 kts 301°
2026-04-29 18:49 64.48967 41.74292 7094 ft 234 kts 301°
2026-04-29 18:49 64.49708 41.70964 6804 ft 234 kts 301°
2026-04-29 18:49 64.50462 41.67573 6506 ft 237 kts 301°
2026-04-29 18:50 64.51205 41.64221 6202 ft 234 kts 301°
2026-04-29 18:50 64.51946 41.60855 5890 ft 230 kts 301°
2026-04-29 18:50 64.52661 41.57614 5591 ft 227 kts 301°
2026-04-29 18:50 64.53396 41.54298 5295 ft 232 kts 301°
2026-04-29 18:51 64.54135 41.50948 4998 ft 232 kts 301°
2026-04-29 18:51 64.54855 41.47669 4704 ft 227 kts 301°
2026-04-29 18:51 64.55563 41.44439 4421 ft 223 kts 302°
2026-04-29 18:51 64.56272 41.41169 4161 ft 227 kts 298°
2026-04-29 18:52 64.56685 41.37662 4047 ft 221 kts 283°
2026-04-29 18:52 64.56847 41.34189 3987 ft 209 kts 282°
2026-04-29 18:52 64.57016 41.30849 3865 ft 208 kts 282°
2026-04-29 18:52 64.57195 41.27473 3645 ft 207 kts 282°
2026-04-29 18:53 64.57365 41.24210 3417 ft 201 kts 283°
2026-04-29 18:53 64.57514 41.21047 3213 ft 196 kts 282°
2026-04-29 18:53 64.57661 41.17909 3014 ft 190 kts 283°
2026-04-29 18:53 64.57812 41.14965 2940 ft 179 kts 283°
2026-04-29 18:54 64.57967 41.12158 2887 ft 171 kts 284°
2026-04-29 18:54 64.58102 41.09447 2711 ft 168 kts 283°
2026-04-29 18:54 64.58240 41.06762 2501 ft 164 kts 284°
2026-04-29 18:54 64.58375 41.04189 2322 ft 158 kts 283°
2026-04-29 18:55 64.58500 41.01730 2171 ft 145 kts 284°
2026-04-29 18:55 64.58621 40.99458 2056 ft 141 kts 284°
2026-04-29 18:55 64.58741 40.97145 1973 ft 143 kts 283°
2026-04-29 18:55 64.58850 40.94934 1920 ft 136 kts 284°
2026-04-29 18:56 64.58964 40.92738 1742 ft 134 kts 284°
2026-04-29 18:56 64.59071 40.90605 1558 ft 136 kts 283°
2026-04-29 18:56 64.59188 40.88367 1389 ft 140 kts 282°
2026-04-29 18:56 64.59297 40.86151 1134 ft 136 kts 284°
2026-04-29 18:57 64.59403 40.84056 955 ft 123 kts 283°
2026-04-29 18:57 64.59499 40.82129 796 ft 122 kts 281°
2026-04-29 18:57 64.59602 40.80141 648 ft 128 kts 284°
2026-04-29 18:57 64.59692 40.78112 448 ft 127 kts 280°
2026-04-29 18:58 64.59815 40.76111 265 ft 127 kts 281°
2026-04-29 18:58 64.59911 40.74049 99 ft 127 kts 281°
2026-04-29 18:58 64.60010 40.72078 287 ft 120 kts 283°
2026-04-29 18:58 64.60112 40.70245 860 ft 117 kts 281°
2026-04-29 18:59 64.60219 40.68248 1331 ft 137 kts 281°
2026-04-29 18:59 64.60326 40.65905 1878 ft 155 kts 283°
2026-04-29 18:59 64.60468 40.63211 2053 ft 189 kts 283°
2026-04-29 18:59 64.60633 40.59969 1985 ft 210 kts 284°
2026-04-29 19:00 64.61060 40.56773 1975 ft 203 kts 304°
2026-04-29 19:00 64.61977 40.54344 1979 ft 198 kts 322°
2026-04-29 19:00 64.63135 40.52657 1974 ft 198 kts 339°
2026-04-29 19:00 64.64486 40.52123 1975 ft 200 kts 359°
2026-04-29 19:01 64.65890 40.52438 1974 ft 202 kts
2026-04-29 19:01 64.67261 40.52796 1970 ft 200 kts
2026-04-29 19:01 64.68648 40.53189 1970 ft 202 kts
2026-04-29 19:01 64.69962 40.54449 1967 ft 208 kts 31°
2026-04-29 19:02 64.70969 40.56924 1971 ft 216 kts 51°
2026-04-29 19:02 64.71443 40.59060 1974 ft 234 kts 65°
2026-04-29 19:02 64.71564 40.64421 1978 ft 261 kts 93°
2026-04-29 19:02 64.71319 40.68663 1959 ft 262 kts 93°
2026-04-29 19:03 64.71099 40.72823 1962 ft 259 kts 92°
2026-04-29 19:03 64.70892 40.77043 1967 ft 262 kts 92°
2026-04-29 19:03 64.70686 40.81217 1961 ft 260 kts 92°
2026-04-29 19:03 64.70476 40.85444 1959 ft 262 kts 92°
2026-04-29 19:04 64.70209 40.89683 1962 ft 262 kts 96°
2026-04-29 19:04 64.69858 40.93872 1955 ft 261 kts 97°
2026-04-29 19:04 64.69509 40.98005 1954 ft 262 kts 97°
2026-04-29 19:04 64.69163 41.02225 1961 ft 263 kts 96°
2026-04-29 19:05 64.68823 41.06401 1953 ft 264 kts 96°
2026-04-29 19:05 64.68471 41.10539 1945 ft 255 kts 99°
2026-04-29 19:05 64.67841 41.14307 1946 ft 248 kts 119°
2026-04-29 19:05 64.66620 41.17085 1952 ft 246 kts 148°
2026-04-29 19:06 64.65032 41.18465 1947 ft 248 kts 170°
2026-04-29 19:06 64.63329 41.18534 1948 ft 245 kts 189°
2026-04-29 19:06 64.60090 41.16518 1954 ft 236 kts 218°
2026-04-29 19:07 64.58998 41.14011 1949 ft 210 kts 242°
2026-04-29 19:07 64.58749 41.13070 1949 ft 202 kts 247°
2026-04-29 19:07 64.58183 41.08362 1950 ft 165 kts 277°
2026-04-29 19:07 64.58308 41.05824 1959 ft 152 kts 289°
2026-04-29 19:08 64.58456 41.03528 1970 ft 139 kts 283°
2026-04-29 19:08 64.58559 41.01330 1952 ft 133 kts 284°
2026-04-29 19:08 64.58651 40.99177 1960 ft 133 kts 284°
2026-04-29 19:08 64.58752 40.97041 1966 ft 135 kts 284°
2026-04-29 19:09 64.58856 40.94887 1953 ft 130 kts 284°
2026-04-29 19:09 64.58961 40.92777 1753 ft 130 kts 284°
2026-04-29 19:09 64.59060 40.90778 1537 ft 119 kts 284°
2026-04-29 19:09 64.59158 40.88918 1408 ft 118 kts 285°
2026-04-29 19:10 64.59255 40.86955 1257 ft 124 kts 281°
2026-04-29 19:10 64.59364 40.84952 1050 ft 122 kts 283°
2026-04-29 19:10 64.59444 40.83040 878 ft 114 kts 279°
2026-04-29 19:10 64.59548 40.81195 733 ft 118 kts 281°
2026-04-29 19:11 64.59647 40.79194 584 ft 127 kts 279°
2026-04-29 19:11 64.59744 40.77139 369 ft 128 kts 282°
2026-04-29 19:11 64.59860 40.75130 183 ft 126 kts 280°
2026-04-29 19:11 64.59956 40.73152 72 ft 112 kts 278°
2026-04-29 19:12 64.60026 40.71852 72 ft 52 kts 274°
2026-04-29 19:12 64.60043 40.71393 71 ft 9 kts 268°
2026-04-29 19:12 64.59994 40.71322 71 ft 12 kts 188°
2026-04-29 19:12 64.59959 40.71311 71 ft 14 kts 186°
2026-04-29 19:13 64.59907 40.71301 71 ft 0 kts 187°
2026-04-29 19:13 64.59884 40.71295 71 ft 6 kts 187°
2026-04-29 19:14 64.59825 40.71278 71 ft 11 kts 187°
2026-04-29 19:14 64.59747 40.71265 71 ft 9 kts 159°
2026-04-29 19:14 64.59705 40.71371 71 ft 8 kts 172°
2026-04-29 19:14 64.59678 40.71370 71 ft 3 kts 181°
2026-04-29 19:15 64.59671 40.71369 71 ft 0 kts 185°